{"data":{"norad_id":58148,"intl_designator":"2023-165A","name":"COSMOS 2570","alt_names":[],"object_type":"PAYLOAD","status":"ACTIVE","operator":null,"country":"CIS","launch_date":"2023-10-27","launch_site_code":"PLMSC","launch_vehicle":null,"mission":null,"orbit_class":"UNKNOWN","rcs_meters":null,"size_class":null,"mass_kg":null,"dimensions":null,"purposes":[],"wikipedia_slug":null,"has_3d_model":false,"image_url":null,"decayed_at":null,"tle_current":{"epoch":"2026-09-21T22:22:28.285248Z","epoch_age_seconds":112653,"freshness":"FRESH","line1":"1 58148U 23165A   26264.93227182 -.00000059  00000+0  11669-4 0  9998","line2":"2 58148  67.1493  54.2961 0006701 267.0534  92.9784 13.96676848148141","mean_motion":13.96676848,"eccentricity":0.0006701,"inclination_deg":67.1493,"raan_deg":54.2961,"arg_perigee_deg":267.0534,"mean_anomaly_deg":92.9784,"bstar":1.1669e-5,"rev_number":14814,"period_min":103.10187371274,"perigee_km":900.44479647837,"apogee_km":910.2060928467,"semimajor_km":7283.4624446625,"source":"CELESTRAK","updated_at":"2026-09-22T09:00:26.500747Z"}}}